User: anonymous   Login
Location: Unspecified
(0.0000°N, 0.0000°E)
Time: 17:57:59
(UTC+00:00)
Language:

COSMOS 2401 - Orbit

View from above orbital plane
View from above orbital plane
View from above satellite
View from above satellite

Ground track
Ground track

The orbit data is extracted from the following two-line orbital elements,

1 27869U 03037B   19016.69703849 -.00000003  00000-0 -92704-4 0  9999
2 27869  82.4674 225.5736 0022049 220.0316 139.9129 12.45454168700748
Epoch (UTC): 16 January 2019 16:43:44
Eccentricity: 0.0022049
inclination: 82.4674°
perigee height: 1466 km
apogee height: 1501 km
right ascension of ascending node: 225.5736°
argument of perigee: 220.0316°
revolutions per day: 12.45454168
mean anomaly at epoch: 139.9129°
orbit number at epoch: 70074

The dashed part of the orbit path shows where the satellite is in the earth's shadow,  

DLR